CFG5PW EDDB-LIMC

Flight info

Callsign CFG5PW
Flight time 1h 38m
Altitude 39000
Route KISUC1Q KISUC Z117 ODLUN/N0485F410 Z117 ORTAG DCT BAMKI/N0483F400 DCT IBAGA DCT DKB DCT TEDGO DCT SONOM/N0489F410 DCT GERSA N850 DEGAD/N0489F390 Z424 BASGO/N0494F290 Z424 AKASU/N0423F190 Z424 RIXUV
Aircraft MD11/H-SDE1E2E3FGHIJ2J3J4J5M1RWXY/LB1D1

Departure

Time 2026-05-05 18:41
Airport Berlin Brandenburg Airport (EDDB)

Arrival

Time 2026-05-05 20:19
Airport Milan Malpensa International Airport (LIMC)
Time Latitude Longitude Altitude Speed Heading
2026-05-05 17:51 52.36085 13.50772 162 ft 0 kts 69°
2026-05-05 17:53 52.36415 13.50563 162 ft 0 kts 69°
2026-05-05 17:53 52.36415 13.50562 162 ft 0 kts 69°
2026-05-05 18:23 52.36408 13.50532 162 ft 4 kts 69°
2026-05-05 18:24 52.36400 13.50498 162 ft 3 kts 70°
2026-05-05 18:24 52.36396 13.50458 162 ft 4 kts 109°
2026-05-05 18:24 52.36410 13.50425 162 ft 4 kts 148°
2026-05-05 18:24 52.36424 13.50413 162 ft 0 kts 159°
2026-05-05 18:29 52.36423 13.50414 162 ft 1 kts 159°
2026-05-05 18:29 52.36389 13.50435 162 ft 9 kts 160°
2026-05-05 18:29 52.36320 13.50419 162 ft 14 kts 199°
2026-05-05 18:30 52.36212 13.50395 162 ft 17 kts 166°
2026-05-05 18:30 52.36108 13.50456 162 ft 13 kts 159°
2026-05-05 18:30 52.36035 13.50502 162 ft 10 kts 159°
2026-05-05 18:30 52.35971 13.50543 162 ft 9 kts 159°
2026-05-05 18:31 52.35916 13.50577 162 ft 8 kts 159°
2026-05-05 18:31 52.35873 13.50605 162 ft 0 kts 159°
2026-05-05 18:32 52.35871 13.50606 162 ft 2 kts 159°
2026-05-05 18:32 52.35836 13.50627 162 ft 8 kts 162°
2026-05-05 18:32 52.35773 13.50596 162 ft 11 kts 227°
2026-05-05 18:33 52.35732 13.50452 162 ft 17 kts 247°
2026-05-05 18:33 52.35679 13.50239 162 ft 23 kts 248°
2026-05-05 18:33 52.35619 13.49969 162 ft 27 kts 250°
2026-05-05 18:33 52.35547 13.49675 162 ft 29 kts 248°
2026-05-05 18:34 52.35488 13.49430 164 ft 22 kts 249°
2026-05-05 18:34 52.35440 13.49223 162 ft 13 kts 249°
2026-05-05 18:34 52.35426 13.49162 162 ft 4 kts 249°
2026-05-05 18:34 52.35411 13.49097 162 ft 9 kts 249°
2026-05-05 18:35 52.35385 13.48985 162 ft 8 kts 249°
2026-05-05 18:35 52.35360 13.48877 162 ft 13 kts 249°
2026-05-05 18:35 52.35317 13.48701 162 ft 20 kts 249°
2026-05-05 18:35 52.35266 13.48517 162 ft 14 kts 228°
2026-05-05 18:36 52.35198 13.48476 162 ft 9 kts 197°
2026-05-05 18:36 52.35146 13.48389 162 ft 13 kts 239°
2026-05-05 18:36 52.35103 13.48233 162 ft 17 kts 250°
2026-05-05 18:36 52.35056 13.48014 162 ft 23 kts 251°
2026-05-05 18:37 52.34996 13.47754 162 ft 22 kts 248°
2026-05-05 18:37 52.34941 13.47526 163 ft 21 kts 248°
2026-05-05 18:37 52.34890 13.47314 162 ft 19 kts 249°
2026-05-05 18:37 52.34843 13.47117 162 ft 18 kts 249°
2026-05-05 18:38 52.34801 13.46939 162 ft 15 kts 249°
2026-05-05 18:38 52.34767 13.46814 163 ft 7 kts 233°
2026-05-05 18:38 52.34733 13.46782 162 ft 5 kts 195°
2026-05-05 18:38 52.34694 13.46788 162 ft 7 kts 165°
2026-05-05 18:39 52.34624 13.46827 162 ft 14 kts 159°
2026-05-05 18:39 52.34568 13.46921 162 ft 10 kts 98°
2026-05-05 18:39 52.34574 13.46964 162 ft 0 kts 69°
2026-05-05 18:40 52.34632 13.47210 162 ft 67 kts 69°
2026-05-05 18:41 52.34925 13.48438 164 ft 160 kts 69°
2026-05-05 18:41 52.35358 13.50337 803 ft 185 kts 70°
2026-05-05 18:41 52.35598 13.52262 2347 ft 165 kts 88°
2026-05-05 18:41 52.35252 13.54187 3104 ft 206 kts 122°
2026-05-05 18:42 52.33961 13.55731 3319 ft 253 kts 160°
2026-05-05 18:42 52.32200 13.55954 4295 ft 262 kts 188°
2026-05-05 18:42 52.30518 13.54849 5639 ft 264 kts 216°
2026-05-05 18:42 52.29117 13.52869 6818 ft 272 kts 224°
2026-05-05 18:43 52.27779 13.50653 7237 ft 274 kts 230°
2026-05-05 18:43 52.26737 13.48071 7612 ft 273 kts 245°
2026-05-05 18:43 52.26240 13.45091 7925 ft 275 kts 263°
2026-05-05 18:43 52.26155 13.41963 7992 ft 276 kts 269°
2026-05-05 18:44 52.26179 13.38828 7927 ft 276 kts 270°
2026-05-05 18:44 52.26214 13.35705 7930 ft 277 kts 270°
2026-05-05 18:44 52.26241 13.32569 7936 ft 274 kts 270°
2026-05-05 18:44 52.26257 13.29453 7979 ft 279 kts 268°
2026-05-05 18:45 52.25856 13.26448 9257 ft 273 kts 248°
2026-05-05 18:45 52.25026 13.23623 10205 ft 285 kts 242°
2026-05-05 18:45 52.24032 13.20555 10348 ft 325 kts 242°
2026-05-05 18:45 52.22943 13.17111 10658 ft 349 kts 243°
2026-05-05 18:46 52.21865 13.13547 11016 ft 352 kts 244°
2026-05-05 18:46 52.20810 13.09925 11385 ft 354 kts 244°
2026-05-05 18:46 52.19777 13.06278 12286 ft 354 kts 245°
2026-05-05 18:46 52.18762 13.02648 13383 ft 359 kts 245°
2026-05-05 18:47 52.17727 12.98919 14339 ft 363 kts 245°
2026-05-05 18:47 52.16682 12.95145 15230 ft 368 kts 245°
2026-05-05 18:47 52.15625 12.91322 16103 ft 372 kts 245°
2026-05-05 18:47 52.14555 12.87455 16955 ft 377 kts 245°
2026-05-05 18:48 52.13835 12.84854 17471 ft 382 kts 245°
2026-05-05 18:48 52.12721 12.80835 18270 ft 387 kts 245°
2026-05-05 18:48 52.11618 12.76861 18991 ft 390 kts 245°
2026-05-05 18:48 52.10497 12.72828 19727 ft 392 kts 245°
2026-05-05 18:49 52.09367 12.68771 20442 ft 395 kts 245°
2026-05-05 18:49 52.08243 12.64741 21171 ft 397 kts 244°
2026-05-05 18:49 52.07098 12.60647 21884 ft 401 kts 244°
2026-05-05 18:49 52.05934 12.56492 22615 ft 404 kts 244°
2026-05-05 18:50 52.04765 12.52325 23399 ft 408 kts 244°
2026-05-05 18:50 52.03582 12.48117 24057 ft 411 kts 244°
2026-05-05 18:50 52.02391 12.43889 24594 ft 416 kts 244°
2026-05-05 18:50 52.01179 12.39591 24968 ft 416 kts 244°
2026-05-05 18:51 51.99974 12.35328 25324 ft 418 kts 244°
2026-05-05 18:51 51.98758 12.31031 25692 ft 420 kts 244°
2026-05-05 18:51 51.97533 12.26714 26101 ft 422 kts 243°
2026-05-05 18:51 51.96302 12.22381 26830 ft 425 kts 243°
2026-05-05 18:52 51.95058 12.18014 27500 ft 428 kts 243°
2026-05-05 18:52 51.93806 12.13625 28148 ft 431 kts 243°
2026-05-05 18:52 51.92539 12.09196 28793 ft 435 kts 243°
2026-05-05 18:52 51.91246 12.04746 29428 ft 438 kts 243°
2026-05-05 18:53 51.89937 12.00273 29959 ft 443 kts 242°
2026-05-05 18:53 51.88612 11.95741 30414 ft 447 kts 242°
2026-05-05 18:53 51.87287 11.91187 30893 ft 449 kts 243°
2026-05-05 18:53 51.85945 11.86642 31454 ft 447 kts 240°
2026-05-05 18:54 51.84351 11.82359 32068 ft 442 kts 234°
2026-05-05 18:54 51.82561 11.78326 32589 ft 441 kts 231°
2026-05-05 18:54 51.80697 11.74418 33003 ft 438 kts 230°
2026-05-05 18:54 51.78821 11.70566 33428 ft 436 kts 230°
2026-05-05 18:55 51.76949 11.66714 33749 ft 436 kts 230°
2026-05-05 18:55 51.75094 11.62866 33819 ft 434 kts 230°
2026-05-05 18:55 51.71410 11.55146 33834 ft 434 kts 231°
2026-05-05 18:56 51.67726 11.47397 34254 ft 436 kts 230°
2026-05-05 18:56 51.65885 11.43530 34683 ft 435 kts 230°
2026-05-05 18:56 51.64040 11.39659 35091 ft 435 kts 230°
2026-05-05 18:57 51.62195 11.35795 35505 ft 435 kts 230°
2026-05-05 18:57 51.60349 11.31937 35885 ft 435 kts 231°
2026-05-05 18:57 51.58507 11.28092 36267 ft 434 kts 231°
2026-05-05 18:57 51.56659 11.24240 36649 ft 434 kts 231°
2026-05-05 18:58 51.54793 11.20439 37014 ft 433 kts 229°
2026-05-05 18:58 51.52770 11.16855 37375 ft 432 kts 224°
2026-05-05 18:58 51.50496 11.13699 37719 ft 432 kts 216°
2026-05-05 18:58 51.48001 11.11128 38042 ft 432 kts 208°
2026-05-05 18:59 51.45262 11.09133 38349 ft 434 kts 201°
2026-05-05 18:59 51.42324 11.07754 38600 ft 436 kts 193°
2026-05-05 18:59 51.39352 11.07029 38805 ft 439 kts 187°
2026-05-05 18:59 51.36296 11.06705 38984 ft 441 kts 185°
2026-05-05 19:00 51.33226 11.06535 39174 ft 442 kts 184°
2026-05-05 19:00 51.30138 11.06393 39375 ft 443 kts 184°
2026-05-05 19:00 51.27054 11.06229 39561 ft 444 kts 185°
2026-05-05 19:00 51.23967 11.06035 39748 ft 445 kts 185°
2026-05-05 19:01 51.20869 11.05816 39938 ft 446 kts 185°
2026-05-05 19:01 51.17772 11.05582 40118 ft 447 kts 185°
2026-05-05 19:01 51.14661 11.05341 40293 ft 448 kts 185°
2026-05-05 19:01 51.11544 11.05096 40470 ft 448 kts 185°
2026-05-05 19:02 51.08423 11.04851 40671 ft 448 kts 185°
2026-05-05 19:02 51.05305 11.04607 40791 ft 451 kts 185°
2026-05-05 19:02 50.99017 11.04116 40811 ft 454 kts 185°
2026-05-05 19:03 50.92706 11.03627 40813 ft 454 kts 185°
2026-05-05 19:03 50.86405 11.03141 40811 ft 454 kts 185°
2026-05-05 19:04 50.80092 11.02654 40804 ft 454 kts 185°
2026-05-05 19:04 50.73821 11.02170 40814 ft 454 kts 185°
2026-05-05 19:05 50.67644 11.00450 40815 ft 451 kts 197°
2026-05-05 19:05 50.61664 10.97482 40815 ft 451 kts 199°
2026-05-05 19:06 50.55696 10.94439 40815 ft 451 kts 199°
2026-05-05 19:06 50.49707 10.91502 40812 ft 451 kts 198°
2026-05-05 19:07 50.43698 10.88617 40817 ft 451 kts 198°
2026-05-05 19:07 50.37697 10.85752 40818 ft 451 kts 198°
2026-05-05 19:08 50.31686 10.82887 40817 ft 452 kts 198°
2026-05-05 19:08 50.25665 10.80024 40820 ft 452 kts 198°
2026-05-05 19:09 50.19644 10.77168 40818 ft 452 kts 198°
2026-05-05 19:09 50.13620 10.74318 40812 ft 453 kts 198°
2026-05-05 19:10 50.07584 10.71470 40819 ft 454 kts 198°
2026-05-05 19:10 50.01694 10.68007 40828 ft 452 kts 210°
2026-05-05 19:11 49.96639 10.62248 40828 ft 452 kts 219°
2026-05-05 19:11 49.91746 10.56189 40828 ft 452 kts 217°
2026-05-05 19:12 49.86626 10.50543 40827 ft 452 kts 214°
2026-05-05 19:12 49.81408 10.45120 40848 ft 451 kts 214°
2026-05-05 19:13 49.76174 10.39750 40836 ft 451 kts 214°
2026-05-05 19:13 49.70957 10.34399 40839 ft 450 kts 214°
2026-05-05 19:14 49.65777 10.29092 40840 ft 449 kts 213°
2026-05-05 19:14 49.60575 10.23772 40843 ft 448 kts 213°
2026-05-05 19:15 49.55372 10.18466 40841 ft 448 kts 213°
2026-05-05 19:15 49.50176 10.13181 40837 ft 447 kts 213°
2026-05-05 19:16 49.44981 10.07910 40836 ft 447 kts 213°
2026-05-05 19:16 49.39791 10.02659 40839 ft 447 kts 213°
2026-05-05 19:17 49.34596 9.97442 40839 ft 446 kts 213°
2026-05-05 19:17 49.29396 9.92248 40838 ft 446 kts 213°
2026-05-05 19:18 49.24199 9.87045 40841 ft 446 kts 213°
2026-05-05 19:18 49.19031 9.81869 40838 ft 446 kts 213°
2026-05-05 19:19 49.13843 9.76685 40837 ft 445 kts 213°
2026-05-05 19:19 49.08660 9.71521 40840 ft 446 kts 213°
2026-05-05 19:20 49.03456 9.66347 40838 ft 446 kts 213°
2026-05-05 19:20 48.98253 9.61189 40841 ft 446 kts 213°
2026-05-05 19:21 48.93061 9.56054 40842 ft 445 kts 213°
2026-05-05 19:21 48.87858 9.50922 40845 ft 445 kts 213°
2026-05-05 19:22 48.82694 9.45842 40848 ft 445 kts 213°
2026-05-05 19:22 48.77468 9.40712 40849 ft 445 kts 213°
2026-05-05 19:23 48.72301 9.35653 40841 ft 445 kts 213°
2026-05-05 19:23 48.67095 9.30575 40836 ft 445 kts 212°
2026-05-05 19:24 48.61735 9.25948 40840 ft 444 kts 202°
2026-05-05 19:24 48.55848 9.23069 40842 ft 445 kts 196°
2026-05-05 19:25 48.49867 9.20619 40854 ft 445 kts 196°
2026-05-05 19:25 48.43901 9.18090 40858 ft 445 kts 197°
2026-05-05 19:26 48.37946 9.15487 40859 ft 445 kts 197°
2026-05-05 19:26 48.32000 9.12871 40864 ft 445 kts 197°
2026-05-05 19:27 48.26055 9.10261 40864 ft 446 kts 197°
2026-05-05 19:27 48.20101 9.07655 40870 ft 446 kts 197°
2026-05-05 19:28 48.14133 9.05051 40870 ft 446 kts 197°
2026-05-05 19:28 48.08219 9.02476 40871 ft 446 kts 197°
2026-05-05 19:29 48.02215 8.99869 40884 ft 447 kts 197°
2026-05-05 19:29 47.96245 8.97283 40880 ft 447 kts 197°
2026-05-05 19:30 47.90305 8.94716 40885 ft 447 kts 197°
2026-05-05 19:30 47.84327 8.92139 40888 ft 447 kts 197°
2026-05-05 19:31 47.78357 8.89553 40892 ft 447 kts 198°
2026-05-05 19:31 47.72439 8.86703 40898 ft 447 kts 199°
2026-05-05 19:32 47.66554 8.83760 40907 ft 447 kts 200°
2026-05-05 19:32 47.60664 8.80825 40909 ft 446 kts 200°
2026-05-05 19:33 47.54772 8.77910 40895 ft 446 kts 200°
2026-05-05 19:33 47.48904 8.75018 40896 ft 446 kts 200°
2026-05-05 19:34 47.44011 8.72613 40893 ft 446 kts 200°
2026-05-05 19:35 47.34216 8.67812 40897 ft 446 kts 200°
2026-05-05 19:35 47.29281 8.65400 40896 ft 446 kts 200°
2026-05-05 19:36 47.23390 8.62527 40897 ft 446 kts 200°
2026-05-05 19:36 47.17544 8.59682 40906 ft 445 kts 200°
2026-05-05 19:37 47.11651 8.56821 40918 ft 446 kts 200°
2026-05-05 19:37 47.08705 8.55393 40758 ft 447 kts 200°
2026-05-05 19:37 47.05743 8.54049 40546 ft 446 kts 196°
2026-05-05 19:37 47.02674 8.53273 40153 ft 449 kts 186°
2026-05-05 19:38 46.99553 8.53288 39694 ft 452 kts 179°
2026-05-05 19:38 46.96422 8.53766 39167 ft 452 kts 176°
2026-05-05 19:38 46.93312 8.54387 38639 ft 452 kts 175°
2026-05-05 19:38 46.90197 8.55006 38019 ft 451 kts 176°
2026-05-05 19:39 46.87081 8.55571 37454 ft 449 kts 177°
2026-05-05 19:39 46.83985 8.56081 36907 ft 448 kts 178°
2026-05-05 19:39 46.80893 8.56553 36407 ft 447 kts 178°
2026-05-05 19:39 46.77801 8.57006 35858 ft 445 kts 179°
2026-05-05 19:40 46.74722 8.57449 35329 ft 444 kts 179°
2026-05-05 19:40 46.71653 8.57887 34791 ft 443 kts 180°
2026-05-05 19:40 46.68590 8.58323 34237 ft 441 kts 180°
2026-05-05 19:40 46.65539 8.58759 33646 ft 439 kts 180°
2026-05-05 19:41 46.62505 8.59192 33044 ft 438 kts 181°
2026-05-05 19:41 46.59469 8.59622 32483 ft 438 kts 180°
2026-05-05 19:41 46.56427 8.60051 31901 ft 439 kts 180°
2026-05-05 19:41 46.53383 8.60480 31319 ft 441 kts 180°
2026-05-05 19:42 46.50346 8.60912 30703 ft 431 kts 180°
2026-05-05 19:42 46.47419 8.61203 30112 ft 413 kts 184°
2026-05-05 19:42 46.44623 8.60981 29430 ft 392 kts 193°
2026-05-05 19:42 46.42032 8.60093 28821 ft 375 kts 202°
2026-05-05 19:43 46.39695 8.58601 28260 ft 359 kts 211°
2026-05-05 19:43 46.37589 8.56792 27751 ft 347 kts 214°
2026-05-05 19:43 46.35589 8.54921 27231 ft 337 kts 215°
2026-05-05 19:43 46.33650 8.53086 26707 ft 328 kts 214°
2026-05-05 19:44 46.31752 8.51311 26238 ft 323 kts 214°
2026-05-05 19:44 46.29830 8.49639 25741 ft 321 kts 210°
2026-05-05 19:44 46.27781 8.48362 25263 ft 322 kts 200°
2026-05-05 19:44 46.25589 8.47680 24777 ft 324 kts 189°
2026-05-05 19:45 46.23324 8.47633 24282 ft 327 kts 181°
2026-05-05 19:45 46.21061 8.47924 23812 ft 326 kts 178°
2026-05-05 19:45 46.18830 8.48299 23268 ft 317 kts 178°
2026-05-05 19:45 46.16707 8.48665 22768 ft 301 kts 178°
2026-05-05 19:46 46.14646 8.49003 22300 ft 296 kts 179°
2026-05-05 19:46 46.12611 8.49320 21848 ft 292 kts 179°
2026-05-05 19:46 46.10608 8.49843 21389 ft 295 kts 169°
2026-05-05 19:46 46.08640 8.50768 20969 ft 298 kts 166°
2026-05-05 19:47 46.06708 8.51805 20529 ft 294 kts 165°
2026-05-05 19:47 46.04837 8.52841 20182 ft 283 kts 165°
2026-05-05 19:47 46.03012 8.53848 19935 ft 280 kts 165°
2026-05-05 19:47 46.01202 8.54839 19794 ft 278 kts 165°
2026-05-05 19:48 45.99384 8.55828 19750 ft 280 kts 165°
2026-05-05 19:48 45.97566 8.56816 19452 ft 281 kts 165°
2026-05-05 19:48 45.95755 8.57798 18857 ft 279 kts 165°
2026-05-05 19:48 45.93951 8.58776 18261 ft 276 kts 165°
2026-05-05 19:49 45.92157 8.59748 17587 ft 274 kts 165°
2026-05-05 19:49 45.90386 8.60739 16936 ft 274 kts 159°
2026-05-05 19:49 45.88755 8.62186 16286 ft 277 kts 149°
2026-05-05 19:49 45.87235 8.63876 15654 ft 276 kts 146°
2026-05-05 19:50 45.85745 8.65611 15019 ft 274 kts 145°
2026-05-05 19:50 45.84272 8.67340 14423 ft 272 kts 145°
2026-05-05 19:50 45.82822 8.69043 13998 ft 270 kts 145°
2026-05-05 19:50 45.81361 8.70752 13633 ft 271 kts 145°
2026-05-05 19:51 45.79907 8.72451 13242 ft 269 kts 144°
2026-05-05 19:51 45.78466 8.74134 13022 ft 266 kts 144°
2026-05-05 19:51 45.77006 8.75774 12997 ft 266 kts 149°
2026-05-05 19:51 45.75441 8.77149 12996 ft 263 kts 154°
2026-05-05 19:52 45.73833 8.78426 12826 ft 267 kts 155°
2026-05-05 19:52 45.72175 8.79630 12211 ft 265 kts 160°
2026-05-05 19:52 45.70498 8.80539 11632 ft 257 kts 163°
2026-05-05 19:52 45.68818 8.81372 11071 ft 254 kts 164°
2026-05-05 19:53 45.67159 8.82196 10508 ft 251 kts 163°
2026-05-05 19:53 45.65535 8.83013 9978 ft 246 kts 163°
2026-05-05 19:53 45.63920 8.83834 9366 ft 245 kts 162°
2026-05-05 19:53 45.62321 8.84653 8777 ft 243 kts 162°
2026-05-05 19:54 45.60737 8.85470 8188 ft 241 kts 162°
2026-05-05 19:54 45.59161 8.86286 7604 ft 239 kts 162°
2026-05-05 19:54 45.57597 8.87097 7151 ft 237 kts 161°
2026-05-05 19:54 45.56048 8.87902 6797 ft 237 kts 161°
2026-05-05 19:55 45.54505 8.88705 6431 ft 236 kts 161°
2026-05-05 19:55 45.52970 8.89503 6086 ft 234 kts 161°
2026-05-05 19:55 45.51439 8.90297 6009 ft 234 kts 162°
2026-05-05 19:55 45.49868 8.90900 5997 ft 234 kts 168°
2026-05-05 19:56 45.48274 8.91365 5993 ft 234 kts 170°
2026-05-05 19:56 45.46681 8.91806 5996 ft 234 kts 170°
2026-05-05 19:56 45.45082 8.92245 5993 ft 234 kts 170°
2026-05-05 19:56 45.43487 8.92682 5991 ft 234 kts 170°
2026-05-05 19:57 45.41890 8.93119 5990 ft 233 kts 170°
2026-05-05 19:57 45.40838 8.93406 5989 ft 232 kts 170°
2026-05-05 19:57 45.38758 8.93974 5980 ft 215 kts 170°
2026-05-05 19:57 45.37312 8.94368 5984 ft 210 kts 171°
2026-05-05 19:58 45.35885 8.94755 5985 ft 208 kts 171°
2026-05-05 19:58 45.34460 8.95140 5990 ft 208 kts 171°
2026-05-05 19:58 45.33035 8.95526 5992 ft 208 kts 171°
2026-05-05 19:58 45.31614 8.95909 5990 ft 208 kts 171°
2026-05-05 19:59 45.30212 8.96294 5990 ft 208 kts 170°
2026-05-05 19:59 45.28793 8.96703 5991 ft 208 kts 170°
2026-05-05 19:59 45.27352 8.97122 5975 ft 208 kts 170°
2026-05-05 19:59 45.25953 8.97529 5974 ft 208 kts 170°
2026-05-05 20:00 45.24537 8.97939 5972 ft 208 kts 170°
2026-05-05 20:00 45.23119 8.98350 5976 ft 208 kts 170°
2026-05-05 20:00 45.21700 8.98760 5976 ft 208 kts 170°
2026-05-05 20:00 45.20283 8.99171 5974 ft 208 kts 170°
2026-05-05 20:01 45.18866 8.99587 5978 ft 208 kts 170°
2026-05-05 20:01 45.17453 9.00000 5974 ft 208 kts 170°
2026-05-05 20:01 45.16029 9.00410 5976 ft 208 kts 170°
2026-05-05 20:01 45.14610 9.00818 5977 ft 208 kts 170°
2026-05-05 20:02 45.13191 9.01224 5967 ft 208 kts 170°
2026-05-05 20:02 45.11776 9.01632 5971 ft 208 kts 170°
2026-05-05 20:02 45.10353 9.02042 5969 ft 208 kts 170°
2026-05-05 20:02 45.08933 9.02450 5971 ft 208 kts 170°
2026-05-05 20:03 45.07512 9.02853 5971 ft 208 kts 170°
2026-05-05 20:03 45.06092 9.03257 5972 ft 208 kts 170°
2026-05-05 20:03 45.04684 9.03659 5974 ft 208 kts 170°
2026-05-05 20:03 45.03274 9.03926 5956 ft 207 kts 185°
2026-05-05 20:04 45.01849 9.03572 5983 ft 205 kts 193°
2026-05-05 20:04 45.00479 9.03137 5973 ft 204 kts 193°
2026-05-05 20:04 44.99094 9.02702 5971 ft 204 kts 193°
2026-05-05 20:04 44.97720 9.02225 5960 ft 203 kts 201°
2026-05-05 20:05 44.96623 9.01020 5956 ft 205 kts 234°
2026-05-05 20:05 44.96213 8.99096 5972 ft 212 kts 267°
2026-05-05 20:05 44.96513 8.97040 5988 ft 217 kts 283°
2026-05-05 20:05 44.97188 8.95137 5960 ft 222 kts 308°
2026-05-05 20:06 44.98471 8.93896 5988 ft 228 kts 332°
2026-05-05 20:06 44.99926 8.92983 5978 ft 229 kts 333°
2026-05-05 20:06 45.01387 8.92079 5977 ft 229 kts 333°
2026-05-05 20:06 45.02848 8.91172 5976 ft 229 kts 333°
2026-05-05 20:07 45.04305 8.90265 5979 ft 229 kts 334°
2026-05-05 20:07 45.05756 8.89346 5977 ft 228 kts 333°
2026-05-05 20:07 45.07197 8.88422 5976 ft 228 kts 333°
2026-05-05 20:07 45.08622 8.87510 5978 ft 228 kts 333°
2026-05-05 20:08 45.10068 8.86586 5975 ft 228 kts 333°
2026-05-05 20:08 45.11511 8.85663 5976 ft 228 kts 333°
2026-05-05 20:08 45.12948 8.84732 5973 ft 226 kts 333°
2026-05-05 20:08 45.14370 8.83790 5977 ft 226 kts 333°
2026-05-05 20:09 45.15793 8.82842 5974 ft 226 kts 333°
2026-05-05 20:09 45.17214 8.81895 5977 ft 226 kts 333°
2026-05-05 20:09 45.18638 8.80949 5979 ft 226 kts 333°
2026-05-05 20:09 45.20058 8.80004 5973 ft 226 kts 333°
2026-05-05 20:10 45.21481 8.79058 5979 ft 226 kts 333°
2026-05-05 20:10 45.22903 8.78114 5992 ft 226 kts 333°
2026-05-05 20:10 45.24325 8.77169 5998 ft 226 kts 333°
2026-05-05 20:10 45.25765 8.76283 5992 ft 227 kts 343°
2026-05-05 20:11 45.27339 8.76190 5559 ft 228 kts 13°
2026-05-05 20:11 45.28739 8.77131 5133 ft 221 kts 33°
2026-05-05 20:11 45.30043 8.78312 4767 ft 222 kts 33°
2026-05-05 20:11 45.31299 8.79441 4387 ft 199 kts 33°
2026-05-05 20:12 45.32393 8.80415 4027 ft 178 kts 33°
2026-05-05 20:12 45.33475 8.81266 3978 ft 176 kts 17°
2026-05-05 20:12 45.34649 8.81204 4007 ft 174 kts 346°
2026-05-05 20:12 45.35837 8.80828 4025 ft 175 kts 348°
2026-05-05 20:13 45.37034 8.80493 4004 ft 175 kts 348°
2026-05-05 20:13 45.38231 8.80160 4002 ft 175 kts 349°
2026-05-05 20:13 45.39427 8.79829 4001 ft 175 kts 349°
2026-05-05 20:13 45.40626 8.79499 4003 ft 175 kts 349°
2026-05-05 20:14 45.41823 8.79170 3997 ft 175 kts 349°
2026-05-05 20:14 45.43021 8.78841 4010 ft 175 kts 349°
2026-05-05 20:14 45.44219 8.78512 4000 ft 175 kts 349°
2026-05-05 20:14 45.45415 8.78185 3963 ft 175 kts 349°
2026-05-05 20:15 45.46605 8.77858 3722 ft 174 kts 349°
2026-05-05 20:15 45.47790 8.77533 3507 ft 173 kts 349°
2026-05-05 20:15 45.48973 8.77209 3274 ft 173 kts 350°
2026-05-05 20:15 45.50149 8.76886 3052 ft 172 kts 350°
2026-05-05 20:16 45.51325 8.76564 2820 ft 171 kts 350°
2026-05-05 20:16 45.52490 8.76244 2582 ft 167 kts 351°
2026-05-05 20:16 45.53583 8.75942 2325 ft 156 kts 351°
2026-05-05 20:16 45.54643 8.75652 2162 ft 155 kts 351°
2026-05-05 20:17 45.55700 8.75362 1945 ft 154 kts 351°
2026-05-05 20:17 45.56746 8.75074 1750 ft 152 kts 351°
2026-05-05 20:17 45.57784 8.74790 1530 ft 151 kts 350°
2026-05-05 20:17 45.58802 8.74505 1323 ft 147 kts 349°
2026-05-05 20:18 45.59791 8.74246 1122 ft 145 kts 349°
2026-05-05 20:18 45.60774 8.73975 925 ft 144 kts 348°
2026-05-05 20:18 45.61757 8.73692 742 ft 142 kts 348°
2026-05-05 20:18 45.62622 8.73457 729 ft 108 kts 349°
2026-05-05 20:19 45.63119 8.73270 725 ft 52 kts 327°
2026-05-05 20:19 45.63293 8.73004 726 ft 22 kts 304°
2026-05-05 20:19 45.63339 8.72903 728 ft 3 kts 303°
2026-05-05 20:19 45.63349 8.72882 727 ft 2 kts 303°
2026-05-05 20:20 45.63369 8.72838 727 ft 11 kts 303°
2026-05-05 20:20 45.63407 8.72687 724 ft 22 kts 276°
2026-05-05 20:20 45.63381 8.72428 727 ft 29 kts 258°
2026-05-05 20:20 45.63344 8.72152 724 ft 22 kts 259°
2026-05-05 20:21 45.63335 8.72088 727 ft 0 kts 258°
2026-05-05 20:23 45.63335 8.72086 727 ft 2 kts 258°
2026-05-05 20:23 45.63326 8.72033 726 ft 9 kts 254°
2026-05-05 20:23 45.63271 8.71975 726 ft 12 kts 183°
2026-05-05 20:23 45.63174 8.71998 726 ft 17 kts 168°
2026-05-05 20:24 45.63040 8.72038 725 ft 21 kts 168°
2026-05-05 20:24 45.62886 8.72083 724 ft 24 kts 168°
2026-05-05 20:24 45.62742 8.72122 724 ft 16 kts 169°
2026-05-05 20:24 45.62630 8.72152 723 ft 19 kts 169°
2026-05-05 20:25 45.62496 8.72190 724 ft 15 kts 169°
2026-05-05 20:25 45.62442 8.72204 724 ft 10 kts 171°
2026-05-05 20:25 45.62373 8.72150 726 ft 13 kts 239°
2026-05-05 20:25 45.62352 8.72008 725 ft 18 kts 260°
2026-05-05 20:26 45.62338 8.71889 726 ft 7 kts 267°
2026-05-05 20:26 45.62356 8.71851 728 ft 7 kts 314°
2026-05-05 20:26 45.62393 8.71803 725 ft 6 kts 319°
2026-05-05 20:26 45.62409 8.71784 728 ft 0 kts 320°
2026-05-05 20:27 45.62410 8.71783 728 ft 0 kts 320°
2026-05-05 20:27 45.62414 8.71778 728 ft 0 kts 320°